CT1OY Oeiras PT current weather conditions

sailwx.info

Wind from 349

Air temperature 31.7° C
Dewpoint 13.9° C

Last reported at 2014-Sep-01 13:46 UTC.
Time now 2014-Sep-01 14:12 UTC

Location: N 38°44' W 009°17'.
View on Google Maps.

See reports from other nearby stations

  
Tides and Currents Weather Stations Pressure Air Temp Water Temp Dewpoint Dewpoint Depression Visibility Wind Speed Wind Dir Waves Ship Positions
date/time (UTC)wind fromknots sea level pressurealtimeterstation pressurevisibilityair tempwater tempwave heightnotes
2014-Sep-01 13:46 349 31.7
2014-Sep-01 13:26 224 31.1
2014-Sep-01 13:16 134 1 31.1
2014-Sep-01 12:46 140 1 30.6
2014-Sep-01 11:56 165 28.9
2014-Sep-01 11:36 135 2 28.3
2014-Sep-01 11:26 114 3 28.3
2014-Sep-01 11:06 111 2 28.3
2014-Sep-01 10:56 281 28.3
2014-Sep-01 10:26 129 0 29.4
2014-Sep-01 10:06 118 1 28.3
2014-Sep-01 09:56 315 27.8
2014-Sep-01 09:36 079 26.7
2014-Sep-01 09:26 315 26.1
2014-Sep-01 09:16 067 26.1
2014-Sep-01 09:06 063 25.6
2014-Sep-01 08:56 084 25.6
2014-Sep-01 08:46 150 25.6
2014-Sep-01 08:16 271 26.1
2014-Sep-01 07:56 271 26.1
2014-Sep-01 07:46 271 24.4
2014-Sep-01 07:26 271 22.8
2014-Sep-01 07:16 271 21.1
2014-Sep-01 07:06 271 20.6
2014-Sep-01 06:56 271 20.0
2014-Sep-01 06:46 271 19.4
2014-Sep-01 06:36 271 18.9
2014-Sep-01 06:16 271 18.3
2014-Sep-01 05:56 271 18.3
2014-Sep-01 05:36 273 18.9
2014-Sep-01 05:26 273 18.9
2014-Sep-01 04:36 273 18.3
2014-Sep-01 04:26 273 18.3
2014-Sep-01 04:16 273 18.3
2014-Sep-01 04:06 273 18.3
2014-Sep-01 03:46 272 18.9
2014-Sep-01 03:36 273 18.9
2014-Sep-01 03:26 272 18.9
2014-Sep-01 03:06 273 18.9
2014-Sep-01 02:56 262 18.9
2014-Sep-01 02:46 279 18.9
2014-Sep-01 02:36 288 18.9
2014-Sep-01 02:26 269 18.9
2014-Sep-01 01:56 283 18.9
2014-Sep-01 01:26 297 18.9
2014-Sep-01 01:16 295 18.9
2014-Sep-01 00:36 294 0 18.9
2014-Sep-01 00:26 036 18.9
2014-Sep-01 00:16 322 0 18.9
2014-Sep-01 00:06 291 0 18.9
2014-Aug-31 23:46 314 18.9
2014-Aug-31 23:36 315 18.9
2014-Aug-31 23:06 302 2 18.9
2014-Aug-31 22:56 015 1 18.9
2014-Aug-31 22:36 340 0 18.9
2014-Aug-31 22:16 326 19.4
2014-Aug-31 21:56 038 0 19.4
2014-Aug-31 21:46 255 19.4
2014-Aug-31 21:36 005 0 19.4
2014-Aug-31 21:26 011 1 19.4
2014-Aug-31 21:16 306 19.4
2014-Aug-31 21:06 285 19.4
2014-Aug-31 20:56 277 20.0
2014-Aug-31 20:46 281 20.0
2014-Aug-31 20:36 080 0 20.0
2014-Aug-31 19:36 287 21.1
2014-Aug-31 19:26 252 21.7
2014-Aug-31 18:56 284 22.8
2014-Aug-31 18:26 335 25.0
2014-Aug-31 18:16 282 25.6
2014-Aug-31 18:06 320 3 26.7
2014-Aug-31 17:36 280 1 28.3
2014-Aug-31 17:26 283 28.3
2014-Aug-31 16:46 176 0 27.8
2014-Aug-31 16:16 213 0 27.8
2014-Aug-31 16:06 193 27.8
2014-Aug-31 15:56 129 1 27.8
2014-Aug-31 15:46 244 27.8
2014-Aug-31 15:36 188 0 27.8
2014-Aug-31 14:46 273 2 26.7
2014-Aug-31 14:36 121 2 26.7
2014-Aug-31 14:26 229 1 26.7
2014-Aug-31 13:56 335 25.6
2014-Aug-31 13:46 134 4 25.6
2014-Aug-31 13:36 215 0 26.1
2014-Aug-31 13:16 203 2 25.6
2014-Aug-31 12:46 162 0 25.0
2014-Aug-31 12:26 210 2 24.4
2014-Aug-31 12:16 233 2 25.0
2014-Aug-31 12:06 180 1 24.4
2014-Aug-31 11:56 240 23.9
2014-Aug-31 11:46 079 0 23.9
2014-Aug-31 11:36 225 1 23.9
2014-Aug-31 11:26 170 0 23.3
2014-Aug-31 11:16 137 0 23.3
2014-Aug-31 11:06 145 23.3
2014-Aug-31 10:56 128 3 23.3
2014-Aug-31 10:46 103 2 23.9
2014-Aug-31 10:26 114 0 24.4
2014-Aug-31 10:06 106 0 23.9
2014-Aug-31 09:56 030 23.3
2014-Aug-31 09:46 267 1 22.8
2014-Aug-31 09:16 256 21.1
2014-Aug-31 09:06 271 1 21.1
2014-Aug-31 08:56 290 21.1
2014-Aug-31 08:26 003 21.1
2014-Aug-31 08:16 029 20.6
2014-Aug-31 08:06 079 20.0
2014-Aug-31 07:46 287 20.0
2014-Aug-31 07:36 021 1 18.9
2014-Aug-31 07:26 273 18.3
2014-Aug-31 07:16 288 0 18.3
2014-Aug-31 07:06 271 2 17.8
2014-Aug-31 06:46 312 2 17.2
2014-Aug-31 06:36 293 1 17.2
2014-Aug-31 06:26 283 0 17.2
2014-Aug-31 05:56 306 2 17.2
2014-Aug-31 05:36 291 17.2
2014-Aug-31 05:16 314 4 17.2
2014-Aug-31 05:06 295 2 17.2
2014-Aug-31 04:56 305 0 17.2
2014-Aug-31 04:46 257 3 17.2
2014-Aug-31 04:16 312 2 17.8
2014-Aug-31 04:06 321 3 17.8
2014-Aug-31 03:56 259 1 17.8
2014-Aug-31 03:46 299 1 17.8
2014-Aug-31 03:36 277 1 17.8
2014-Aug-31 03:26 323 0 17.8
2014-Aug-31 03:06 293 3 17.8
2014-Aug-31 02:46 333 2 gusting 10 17.8
2014-Aug-31 02:06 288 0 gusting 11 17.8
2014-Aug-31 01:56 246 1 17.8
2014-Aug-31 01:46 297 1 17.8
2014-Aug-31 01:16 297 0 17.8
2014-Aug-31 00:56 014 4 17.8
2014-Aug-31 00:46 328 17.8
2014-Aug-30 23:56 233 7 gusting 11 17.8
2014-Aug-30 23:46 297 0 gusting 12 18.3
2014-Aug-30 23:26 288 1 gusting 12 18.3
2014-Aug-30 23:16 293 1 gusting 13 18.3
2014-Aug-30 23:06 314 3 gusting 11 18.3
2014-Aug-30 22:56 312 3 gusting 11 18.3
2014-Aug-30 22:46 311 6 gusting 12 18.3
2014-Aug-30 22:16 291 6 18.3
2014-Aug-30 22:06 277 2 18.3
2014-Aug-30 21:36 276 1 18.3
2014-Aug-30 21:26 011 3 18.3
2014-Aug-30 21:16 294 18.3
2014-Aug-30 21:06 279 0 18.3
2014-Aug-30 20:26 272 4 18.3
2014-Aug-30 20:16 305 1 18.9
2014-Aug-30 19:56 294 0 18.9
2014-Aug-30 19:06 326 1 19.4
2014-Aug-30 18:46 084 1 gusting 17 20.0
2014-Aug-30 18:36 288 7 gusting 13 20.6
2014-Aug-30 18:26 270 1 gusting 10 21.1
2014-Aug-30 18:16 297 21.1
2014-Aug-30 17:56 293 4 21.1
2014-Aug-30 17:46 304 0 gusting 12 21.1
2014-Aug-30 17:36 336 4 gusting 11 21.7
2014-Aug-30 17:16 314 0 gusting 13 21.7
2014-Aug-30 16:36 316 6 gusting 12 22.2
2014-Aug-30 16:26 298 6 gusting 13 22.2
2014-Aug-30 15:56 309 10 gusting 12 23.3
2014-Aug-30 15:46 282 3 gusting 11 23.9
2014-Aug-30 15:26 294 7 gusting 12 23.3
2014-Aug-30 15:16 276 2 gusting 13 23.9
2014-Aug-30 15:06 232 5 gusting 13 23.9
2014-Aug-30 14:56 290 2 gusting 10 24.4
2014-Aug-30 14:46 249 5 gusting 11 23.9
2014-Aug-30 14:36 305 1 gusting 11 23.9
2014-Aug-30 14:26 284 6 gusting 11 23.9
2014-Aug-30 14:06 308 4 25.0